OneWeb SL0190

operational
NORAD ID: 48796 Int'l Des: 2021-045 Owner: ONEWEBN Country: UK Constellation: oneweb
LEOCIRCULARPOLARONEWEB_TYPE

关于 OneWeb SL0190

正在加载描述...

实时位置

正在加载3D地球...

即将过境

高度历史

Altitude vs Time

uPlot chart will show altitude changes over time

两行轨道根数

1 48796U 21045AF 26062.59083381 .00000147 00000-0 35725-3 0 9996
2 48796 87.8943 280.2848 0001658 114.4160 245.7144 13.15547574230480
Epoch: Mar 3, 2026 • Age: 35 hours

当前状态

高度 1207.7 km
速度 7.26 km/s
星下点 46.16°N, 131.65°E
发射日期 May 28, 2021
运行时间 4.7 years
类型 internet

技术详情

分类 Payload
质量 148.00 kg
干质量 140.00 kg
总质量 148.00 kg
长度 1.30 m
直径 1.00 m
跨度 5.00 m
形状 Trapezoid+2 pan
制造商 ONEWUS
平台类型 ARROW
阶段状态 In Orbit
所有者/国家 ONEWEBN/UK

大型星座

Loading constellations...